TimeCST,TemperatureF,Dew PointF,Humidity,Sea Level PressureIn,VisibilityMPH,Wind Direction,Wind SpeedMPH,Gust SpeedMPH,PrecipitationIn,Events,Conditions,WindDirDegrees,DateUTC
12:53 AM,48.9,46.0,90,29.91,9.0,SE,5.8,-,0.03,,Overcast,140,2012-12-15 06:53:00
1:53 AM,50.0,46.9,89,29.87,10.0,SSE,3.5,-,N/A,,Overcast,160,2012-12-15 07:53:00
2:53 AM,51.1,46.9,86,29.89,4.0,West,12.7,-,0.05,Rain,Heavy Rain,280,2012-12-15 08:53:00
3:27 AM,50.0,48.2,94,29.86,5.0,Calm,Calm,-,0.03,Rain,Light Rain,0,2012-12-15 09:27:00
3:53 AM,50.0,48.0,93,29.84,6.0,ENE,3.5,-,0.03,,Overcast,70,2012-12-15 09:53:00
4:22 AM,50.0,48.2,94,29.83,3.0,SE,4.6,-,N/A,,Mostly Cloudy,130,2012-12-15 10:22:00
4:27 AM,51.8,48.2,88,29.82,3.0,SSE,5.8,-,N/A,,Mostly Cloudy,150,2012-12-15 10:27:00
4:44 AM,51.8,50.0,94,29.82,6.0,SE,3.5,-,N/A,,Mostly Cloudy,140,2012-12-15 10:44:00
4:53 AM,51.1,50.0,96,29.81,5.0,SSE,4.6,-,N/A,,Mostly Cloudy,160,2012-12-15 10:53:00
5:04 AM,51.8,50.0,94,29.83,6.0,Calm,Calm,-,N/A,,Overcast,0,2012-12-15 11:04:00
5:53 AM,52.0,50.0,93,29.83,7.0,NE,4.6,-,N/A,,Overcast,50,2012-12-15 11:53:00
6:53 AM,54.0,52.0,93,29.84,10.0,Calm,Calm,-,N/A,,Overcast,0,2012-12-15 12:53:00
7:36 AM,53.6,51.8,94,29.83,10.0,South,4.6,-,N/A,,Scattered Clouds,170,2012-12-15 13:36:00
7:53 AM,54.0,52.0,93,29.83,10.0,SSW,3.5,-,N/A,,Scattered Clouds,200,2012-12-15 13:53:00
8:03 AM,55.4,53.6,94,29.84,10.0,Variable,3.5,-,N/A,,Mostly Cloudy,0,2012-12-15 14:03:00
8:53 AM,57.9,54.0,87,29.83,10.0,SSW,4.6,-,N/A,,Mostly Cloudy,200,2012-12-15 14:53:00
9:26 AM,59.0,55.4,88,29.84,10.0,SSW,5.8,-,N/A,,Scattered Clouds,200,2012-12-15 15:26:00
9:53 AM,61.0,55.0,81,29.83,10.0,SSW,8.1,-,N/A,,Clear,200,2012-12-15 15:53:00
10:53 AM,64.9,54.0,68,29.81,10.0,SSW,6.9,19.6,N/A,,Clear,210,2012-12-15 16:53:00
11:53 AM,66.9,50.0,54,29.78,10.0,SW,6.9,17.3,N/A,,Clear,220,2012-12-15 17:53:00
12:53 PM,68.0,46.0,45,29.75,10.0,SSW,5.8,-,N/A,,Clear,210,2012-12-15 18:53:00
1:53 PM,69.1,43.0,39,29.73,10.0,SSW,6.9,-,N/A,,Clear,210,2012-12-15 19:53:00
2:53 PM,70.0,41.0,35,29.73,10.0,SW,8.1,-,N/A,,Clear,230,2012-12-15 20:53:00
3:53 PM,66.9,39.9,37,29.72,10.0,SSW,3.5,-,N/A,,Clear,200,2012-12-15 21:53:00
4:53 PM,61.0,42.1,50,29.73,10.0,SSW,4.6,-,N/A,,Clear,210,2012-12-15 22:53:00
5:53 PM,64.9,37.9,37,29.74,10.0,WSW,3.5,-,N/A,,Clear,240,2012-12-15 23:53:00
6:53 PM,57.9,39.0,49,29.76,10.0,Calm,Calm,-,N/A,,Clear,0,2012-12-16 00:53:00
7:53 PM,50.0,41.0,71,29.77,10.0,Calm,Calm,-,N/A,,Clear,0,2012-12-16 01:53:00
8:53 PM,48.9,41.0,74,29.78,10.0,Calm,Calm,-,N/A,,Clear,0,2012-12-16 02:53:00
9:53 PM,50.0,39.9,68,29.78,10.0,South,3.5,-,N/A,,Clear,190,2012-12-16 03:53:00
11:53 PM,48.0,39.9,74,29.78,10.0,SW,3.5,-,N/A,,Clear,230,2012-12-16 05:53:00